Campo, CA

11:17 AM PDT on May 25, 2017 (GMT -0700)
Campo

Weather History for KCZZ - March, 2013

Change the Weather History Date:

Tuesday, March 12, 2013

  Actual Average Record
Temperature  
Mean Temperature 56 °F 51 °F  
Max Temperature 77 °F 67 °F 85 °F (1972)
Min Temperature 34 °F 36 °F 23 °F (1977)
Degree Days  
Heating Degree Days 9 14  
Month to date heating degree days 192 169  
Since 1 July heating degree days 2336 2220  
Cooling Degree Days 0 0  
Month to date cooling degree days 0 0  
Year to date cooling degree days 0 0  
Growing Degree Days 6 (Base 50)    
Moisture  
Dew Point 26 °F    
Average Humidity 42    
Maximum Humidity 70    
Minimum Humidity 14    
Precipitation  
Precipitation 0.00 in 0.11 in 0.68 in (1973)
Month to date precipitation 1.43 1.28  
Year to date precipitation 4.44 7.49  
Since 1 July precipitation 8.91  
Snow  
Snow 0.00 in - - ()
Month to date snowfall 0.0  
Year to date snowfall 0.0  
Snow Depth 0.00 in    
Sea Level Pressure  
Sea Level Pressure 30.01 in    
Wind  
Wind Speed 9 mph (NE)    
Max Wind Speed 24 mph    
Max Gust Speed 31 mph    
T = Trace of Precipitation, MM = Missing Value Source: NWS Daily Summary

Daily Weather History Graph

Daily Weather History Graph

Search for Another Location

Airport or City:

Trip Planner

Search our weather history database for the weather conditions in past years. The results will help you decide how hot, cold, wet, or windy it might be!

Date:

Astronomy

Mar. 12, 2013 Rise Set
Actual Time 6:59 AM PDT 6:51 PM PDT
Civil Twilight 6:35 AM PDT 7:16 PM PDT
Nautical Twilight 6:06 AM PDT 7:44 PM PDT
Astronomical Twilight 5:37 AM PDT 8:13 PM PDT
Moon 7:13 AM PDT (3/12) 8:04 PM PDT (3/12)
Length of Visible Light 12h 41m
Length of Day
11h 52m
New Moon, 1% of the Moon is Illuminated
Mar 12
New Moon
Mar 19
First Quarter
Mar 27
Full
Apr 2
Last Quarter
Apr 10
New

Hourly Weather History & Observations

Time (PDT) Temp. Windchill Dew Point Humidity Pressure Visibility Wind Dir Wind Speed Gust Speed Precip Events Conditions
12:52 AM 41.0 °F 38.0 °F 30.0 °F 65% 30.03 in - NNE 4.6 mph - N/A   Unknown
1:52 AM 39.0 °F 34.0 °F 28.9 °F 67% 30.02 in - NE 6.9 mph - N/A   Unknown
2:52 AM 39.9 °F 36.7 °F 28.0 °F 63% 30.00 in - NE 4.6 mph - N/A   Unknown
3:52 AM 41.0 °F 39.0 °F 26.1 °F 55% 29.98 in - NE 3.5 mph - N/A   Unknown
4:52 AM 37.9 °F 35.5 °F 26.1 °F 62% 29.98 in - NNE 3.5 mph - N/A   Unknown
5:52 AM 37.0 °F - 26.1 °F 65% 29.99 in - Calm Calm - N/A   Unknown
6:52 AM 36.0 °F - 26.1 °F 67% 30.00 in - Calm Calm - N/A   Unknown
7:52 AM 39.9 °F - 28.0 °F 63% 30.03 in - Calm Calm - N/A   Unknown
8:52 AM 55.9 °F - 39.9 °F 55% 30.03 in - ENE 4.6 mph - N/A   Unknown
9:52 AM 71.1 °F - 21.0 °F 15% 30.02 in - ENE 17.3 mph - N/A   Unknown
10:52 AM 73.0 °F - 21.9 °F 15% 30.03 in - ENE 12.7 mph 21.9 mph N/A   Unknown
11:52 AM 73.9 °F - 23.0 °F 15% 30.02 in - NE 16.1 mph 26.5 mph N/A   Unknown
12:52 PM 75.0 °F - 24.1 °F 15% 30.01 in - NE 18.4 mph 27.6 mph N/A   Unknown
1:52 PM 75.9 °F - 25.0 °F 15% 29.99 in - NE 16.1 mph 28.8 mph N/A   Unknown
2:52 PM 75.9 °F - 24.1 °F 15% 29.98 in - ENE 18.4 mph 28.8 mph N/A   Unknown
3:52 PM 75.9 °F - 24.1 °F 15% 29.96 in - ENE 17.3 mph - N/A   Unknown
4:52 PM 75.9 °F - 24.1 °F 15% 29.96 in - ENE 17.3 mph 20.7 mph N/A   Unknown
5:52 PM 73.9 °F - 21.9 °F 14% 29.98 in - NE 11.5 mph - N/A   Unknown
6:52 PM 70.0 °F - 21.9 °F 16% 30.01 in - North 3.5 mph - N/A   Unknown
7:52 PM 54.0 °F - 28.9 °F 38% 30.04 in - NE 6.9 mph - N/A   Unknown
8:52 PM 57.0 °F - 26.1 °F 30% 30.04 in - NNE 5.8 mph - N/A   Unknown
9:52 PM 53.1 °F - 27.0 °F 37% 30.04 in - NE 9.2 mph - N/A   Unknown
10:52 PM 54.0 °F - 27.0 °F 35% 30.04 in - NE 5.8 mph - N/A   Unknown
11:52 PM 53.1 °F - 27.0 °F 37% 30.04 in - NE 8.1 mph - N/A   Unknown